Regional Weather Roundup
Issued by NWS Kansas City/Pleasant Hill, MO

Home | Current Version | Previous Version | Graphics & Text | Print | Product List | Glossary Off
Versions: 1 2 3 4 5 6 7 8 9 10 11 12 13 14 15 16 17 18 19 20 21 22 23 24 25 26 27 28 29 30 31 32 33 34 35 36 37 38 39 40 41 42 43 44 45 46 47 48 49 50

245
ASUS43 KEAX 191310
RWREAX

WEATHER ROUNDUP FOR EASTERN KANSAS AND NORTHWEST MISSOURI
NATIONAL WEATHER SERVICE KANSAS CITY/PLEASANT HILL MO
700 AM CST SUN FEB 19 2017

KSZ040-057-103>105-MOZ028-029-037-043-191400-
...KANSAS CITY METROPOLITAN AREA...

CITY           SKY/WX    TMP DP  RH WIND       PRES   REMARKS
K.C. INTL      PTCLDY    45  45 100 S10       29.95R FOG
K.C. DOWNTOWN  CLEAR     50  48  93 S7        29.96R
LEES SUMMIT    CLEAR     48  48 100 S7        29.97R FOG
OLATHE - IXD   FOG       45  45 100 S9        29.96R VSB 3/4
OLATHE - OJC   FOG       42  42 100 SE3       29.95S VSB 1/4
LAWRENCE       FOG       35  35 100 E6        29.94S VSB<1/4 WCI  30

$$

MOZ001>008-011>017-020>025-030>033-038>040-044>046-053-054-191400-
...NORTHERN AND CENTRAL MISSOURI...

CITY           SKY/WX    TMP DP  RH WIND       PRES   REMARKS
ST. JOSEPH     FOG       35  35 100 CALM      29.95R VSB 1/2
WARRENSBURG    FOG       43  41  93 S5        29.97S VSB<1/4
WHITEMAN AFB   CLEAR     45  45 100 S6        29.97R FOG
CLINTON        CLEAR     39  39 100 SE7       29.99R FOG     WCI  34
SEDALIA        FOG       44  43  96 S6        30.00R VSB 1/4
WARSAW         NOT AVBL
CHILLICOTHE      N/A     37  35  92 CALM      29.99R
KIRKSVILLE     CLEAR     40  38  93 SW5       29.98R

$$

MOZ041-047>049-056>058-063>065-088>090-097-191400-
...EASTERN AND SOUTHERN MISSOURI...

CITY           SKY/WX    TMP DP  RH WIND       PRES   REMARKS
ST. LOUIS INTL PTCLDY    43  40  89 SW3       30.03R FOG
SPIRIT OF STL  FOG       41  41 100 CALM      30.03R VSB 1/4
COLUMBIA       CLEAR     47  46  97 SE6       30.00S FOG
JEFFERSON CITY FOG       36  35  96 SE3       30.02R VSB 1/2
ROLLA          FOG       44  44 100 S7        30.02R VSB 1/4
OSAGE BEACH    FOG       42  42 100 S3        30.02S VSB 1/2
SPRINGFIELD    CLEAR     47  45  93 E8        29.98S
BRANSON        PTCLDY    45  45 100 CALM      30.01R
JOPLIN         CLEAR     45  45 100 VRB5      29.97R FOG
WEST PLAINS    FOG       40  39  97 CALM      30.05R VSB 1/4

$$

IAZ060-094-KSZ022-034>040-054-083-096-NEZ052-066-093-191400-
...KANSAS...SOUTHEAST NEBRASKA AND IOWA...

CITY           SKY/WX    TMP DP  RH WIND       PRES   REMARKS
TOPEKA         FOG       39  37  92 CALM      29.93S VSB 1/4
MANHATTAN      CLOUDY    39  39 100 CALM      29.89F FOG
EMPORIA        FOG       43  43 100 SE9       29.91F VSB 1/4
CHANUTE        FOG       43  42  97 E6        29.94F VSB 1/4
WICHITA        CLOUDY    48  47  96 E7        29.88S FOG
OMAHA          MOCLDY    41  35  79 S7        29.88R
LINCOLN        PTCLDY    43  40  89 CALM      29.87S
FALLS CITY     FOG       41  41 100 SE6       29.91R VSB 1/4
LAMONI         PTCLDY    44  36  73 S7        29.94R
DES MOINES     MOCLDY    42  32  67 SE5       29.94S

$$





USA.gov is the U.S. government's official web portal to all federal, state and local government web resources and services.